www.pogodaiklimat.ru

Погода и климат >> Архив погоды >> Аргентина >> Сан-Мартин


ПОГОДА в Сан-Мартине

  • Прогноз погоды в Сан-Мартине
  • Монитор погоды в Сан-Мартине

АРХИВ ПОГОДЫ в Сан-Мартине

Время (UTC), дата Ветер
(напр.,м/с)
 
Видим.   Явления Облачность Т
(С)
Тd
(С)
f
(%)
Тe
(С)
Тes
(С)
Комфортность P
(гПа)
Po
(гПа)
Тmin
(С)
Tmax
(С)
R
(мм)
R24
(мм)
S
(см)
21 17.05 штиль 0 15 км ясно +19.8 +11.6 59 +21 +21 комфорт 1002.3 928.0
00 18.05 ЮЗ 1 15 км 3/0
[Ac As]
+16.4 +10.2 67 +17 +17 1006.4 931.3 +7.7 +21.5
03 18.05 ЮЗ 1 15 км 6/0
[Ac As]
+15.6 +9.2 66 +16 +16 1009.1 934.4
06 18.05 Ю 1 15 км 8/0
[Ac As]
+14.2 +8.9 70 +15 +15 1010.4 936.2
09 18.05 Ю 1 10 км 10/4 1050 м
[Sc Ac As]
+10.0 +8.0 87 +9 +9 1014.9 939.8
12 18.05 Ю 1 15 км в посл. час морось 10/10 600 м
[Sc]
+9.3 +6.8 84 +9 +9 1019.1 943.3 +8.8 +16.4 5
15 18.05 ЮЗ 3 15 км мгла 9/9 1050 м
[Sc]
+11.8 +7.8 76 +10 +11 1019.6 944.0
18 18.05 Ю 1 15 км 4/1 1050 м
[Cu Sc Ac As]
+15.5 +6.8 56 +16 +21 1016.3 941.2
21 18.05 штиль 0 15 км 1/1 1350 м
[Sc]
+15.0 +7.8 62 +15 +15 1015.6 941.2
00 19.05 штиль 0 15 км 4/0
[Ac und]
+10.7 +7.9 83 +10 +10 1018.3 941.8 +9.3 +16.5
03 19.05 штиль 0 15 км 9/3 1350 м
[Sc Ac As]
+11.3 +7.9 80 +11 +11 1017.5 941.4
06 19.05 штиль 0 15 км 9/0
[Ac As Cs]
+9.7 +7.7 87 +9 +9 1016.0 940.4
09 19.05 штиль 0 15 км 6/0
[Ac As Cs]
+9.0 +6.9 87 +8 +8 1015.1 939.4
12 19.05 штиль 0 15 км 9/9 1050 м
[Sc]
+7.6 +4.5 81 +7 +7 1016.6 940.0 +6.7 +12.0
15 19.05 штиль 0 15 км 4/0
[Ac As]
+13.8 +7.1 64 +14 +20 1014.8 939.2
18 19.05 СВ 1 15 км 9/9 1050 м
[Sc]
+16.0 +7.0 55 +17 +18 1011.4 936.2
21 19.05 штиль 0 15 км 6/6 1050 м
[Sc]
+15.8 +8.1 60 +16 +16 1010.8 935.4
00 20.05 штиль 0 15 км 9/9 1200 м
[Sc]
+14.3 +9.2 71 +14 +14 1011.6 935.8 +7.6 +16.4
03 20.05 штиль 0 15 км 9/9 1350 м
[Sc]
+12.3 +8.6 78 +12 +12 1011.3 936.1
06 20.05 штиль 0 15 км 4/0
[Ac und]
+10.1 +7.9 86 +9 +9 1010.3 935.2
09 20.05 ЮЗ 1 15 км 6/0
[Ac und]
+10.3 +7.7 84 +10 +10 1009.3 934.2
12 20.05 ЮЗ 1 15 км 10/10 600 м
[Sc]
+10.9 +7.5 80 +11 +11 1011.3 936.0 +9.1 +14.3
15 20.05 ЮВ 7 15 км 10/10 750 м
[Sc]
+10.4 +3.1 61 +7 +7 1014.3 938.5
18 20.05 ЮВ 3 3000 м слаб. морось 10/10 450 м
[Frnb]
+8.2 +6.5 89 +6 +6 1014.7 938.2 0.0
21 20.05 ЮЗ 9 5000 м слаб. морось 10/10 450 м
[Frnb]
+7.1 +4.7 85 +2 +2 1017.3 940.6
00 21.05 ЮЗ 3 2000 м морось 10/10 450 м
[Frnb]
+5.0 +3.6 91 +2 +2 1020.8 943.6 +4.3 +12.4 5
03 21.05 ЮЗ 3 2000 м слаб. морось 10/5 450 м
[Frnb As op]
+4.4 +3.0 91 +1 +1 1023.2 945.7
06 21.05 ЮЗ 7 15 км {морось} 10/10 600 м
[St]
+4.2 +3.0 92 -2 -2 1023.8 945.8 5
09 21.05 Ю 1 2000 м слаб. морось 10/6 450 м
[Frnb As op]
+4.4 +3.2 92 +3 +3 1024.9 946.8
12 21.05 ЮЗ 3 2000 м морось 10/6 450 м
[Frnb As op]
+4.3 +3.6 95 +1 +1 1026.3 947.8 +3.1 +5.0 4
15 21.05 ЮЗ 1 7000 м морось 10/10 600 м
[Frnb]
+5.4 +3.6 88 +4 +4 1027.5 949.0
18 21.05 ЮЗ 3 8000 м слаб. морось 10/10 600 м
[Frnb]
+6.1 +4.1 87 +3 +3 1026.1 947.8 3
21 21.05 ЮВ 1 15 км {морось} 10/10 1050 м
[Sc]
+6.3 +2.8 78 +5 +5 1026.0 947.7
00 22.05 ЮВ 1 15 км {морось} 10/10 1050 м
[Sc]
+5.4 +2.6 82 +4 +4 1026.8 948.2 +4.3 +6.8
03 22.05 ЮЗ 1 15 км {морось} 10/10 1050 м
[Sc]
+5.2 +2.3 82 +4 +4 1027.4 949.0
06 22.05 штиль 0 15 км {морось} 9/4 1050 м
[Sc Ac As]
+4.6 +2.2 84 +4 +4 1026.6 948.2 0.0
09 22.05 штиль 0 15 км 10/10 1050 м
[Sc]
+4.0 +1.5 84 +3 +3 1025.8 947.4
12 22.05 Ю 1 15 км 10/10 1050 м
[Sc]
+4.4 +2.0 84 +3 +3 1027.1 948.6 +3.7 +5.4 3
15 22.05 Ю 1 15 км 10/10 1050 м
[Sc]
+5.4 +3.1 85 +4 +4 1026.4 948.1
18 22.05 ЮЗ 1 15 км 8/5 1050 м
[Sc Ac As]
+11.4 +3.0 56 +11 +14 1022.7 945.4
21 22.05 З 1 15 км 3/0
[Ac As]
+10.8 +2.2 55 +11 +11 1021.8 944.4
00 23.05 штиль 0 15 км ясно +6.1 +2.6 78 +5 +5 1022.8 944.6 +4.4 +11.9
03 23.05 штиль 0 15 км ясно +3.3 +2.1 92 +2 +2 1023.1 944.8
06 23.05 штиль 0 15 км ясно +2.1 +1.3 94 +1 +1 1021.2 943.7
09 23.05 штиль 0 15 км ясно +1.3 -0.6 87 0 0 1020.4 942.6
12 23.05 штиль 0 15 км ясно +1.9 -1.1 80 +1 +1 1021.3 943.0 +0.8 +6.1
15 23.05 штиль 0 15 км ясно +10.5 +2.1 56 +10 +18 1020.7 943.2
18 23.05 штиль 0 15 км ясно +16.1 +2.9 41 +16 +24 1017.1 940.5
21 23.05 штиль 0 15 км ясно +15.5 +2.9 43 +15 +16 1016.3 939.6
00 24.05 штиль 0 15 км ясно +7.4 +5.0 85 +7 +7 1017.5 939.7 +1.9 +17.0
03 24.05 штиль 0 15 км ясно +5.3 +2.5 82 +4 +4 1016.7 939.8
06 24.05 штиль 0 15 км ясно +4.2 +1.5 83 +3 +3 1014.5 938.4
09 24.05 штиль 0 15 км ясно +3.9 +0.3 77 +3 +3 1012.8 936.6
12 24.05 ЮЗ 1 15 км 6/0
[Cs]
+3.8 +0.8 81 +2 +3 1013.7 936.4 +2.7 +7.4
15 24.05 ЮЗ 1 15 км 6/0
[Cs]
+12.3 +3.4 55 +13 +19 1013.1 936.6
18 24.05 СВ 1 15 км 5/0
[Cs]
+17.3 +3.6 40 +18 +25 1009.2 933.6

 

Местоположение метеостанции Сан-Мартин (Аргентина): широта -33.08 долгота -68.41 высота над уровнем моря 653 м.

В архиве по умолчанию представлена погода в Сан-Мартине за последнюю неделю. Архивные данные за месяц целиком и за предыдущие месяцы, начиная с января 2011 года, Вы можете получить, выбрав интересующий диапазон дат из раскрывающегося списка и нажав кнопку "Ввод!".


*Определитесь, кто Вы:
робот инопланетянин человек

Внимание! Время в таблицах - всемирное. Для получения местного времени необходимо прибавить поправку, которая равна -3 ч.

Смотрите также архив погоды в соседних городах и на ближайших метеорологических станциях:

Погода в Мендосе (Аргентина) (44 км)
Погода на Пасо Лос Либертадорес (Чили) (162 км)
Погода в Сан-Рафаэле (Аргентина) (167 км)
Погода в Сан-Хуане (Аргентина) (187 км)
Погода в Сан-Хосе-де-Майпо (Чили) (190 км)
Погода в Сан-Луисе (Аргентина) (193 км)
Погода в Сантьяго Агуас Андинас (Чили) (206 км)
Погода в Сантьяго (Чили) (215 км)
Погода в Ло-Пинто (Чили) (217 км)
Погода в Пудауэле (Чили) (223 км)

Пояснения к столбцам:

Ветер - указаны скорость ветра в м/с - средняя за 10 мин, порывы в срок и между сроками (в фигурных скобках) и направление, откуда дует ветер: С - северный, СВ - северо-восточный, В - восточный, ЮВ - юго-восточный, Ю - южный, ЮЗ - юго-западный, З - западный, СЗ - северо-западный.
Видимость - горизонтальная дальность видимости в метрах или километрах. При видимости от 1 до 10 км при отсутствии осадков обычно наблюдается дымка, при ухудшении видимости до 1 км и менее - туман. В сухую погоду видимость может ухудшаться дымом, пылью или мглою.
Явления - указаны атмосферные явления, наблюдавшиеся в срок или в последний час перед сроком; фигурными скобками обозначены явления, наблюдавшиеся между сроками (за 1-3 часа до срока); квадратными скобками обозначены град или гололедные отложения с указанием их диаметра в мм.
Облачность - указаны через наклонную черту общая и нижняя облачность в баллах и высота нижней границы облаков в метрах; квадратными скобками обозначены формы облаков: Ci - перистые, Cs - перисто-слоистые, Cc - перисто-кучевые, Ac - высококучевые, As - высокослоистые, Sc - слоисто-кучевые, Ns - слоисто-дождевые, Cu - кучевые, Cb - кучево-дождевые. Подробнее классификацию облаков см. в Атласе облаков (PDF).
T - Температура воздуха - температура, измеренная на высоте 2 м над землей.
Td - Температура точки росы - температура, при понижении до которой содержащийся в воздухе водяной пар достигнет насыщения.
f - Относительная влажность воздуха - влажноcть воздуха, измеренная на высоте 2 м над землей.
Te - Эффективная температура - температура, которую ощущает одетый по сезону человек в тени. Характеристика душности погоды. При расчете учитывается влияние влажности воздуха и скорости ветра на теплоощущения человека.
Tes - Эффективная температура на солнце - температура, которую ощущает человек, с поправкой на солнечный нагрев. Характеристика знойности погоды. Зависит от высоты солнца над горизонтом, облачности и скорости ветра. Ночью, в пасмурную погоду, а также при ветре 12 м/с и более поправка равна нулю.
P - Атмосферное давление - приведенное к уровню моря атмосферное давление.
Po - Атмосферное давление - измеренное на уровне метеостанции атмосферное давление.
Tmin - Минимальная температура - минимум температуры воздуха на высоте 2 м над землей.
Tmax - Максимальная температура - максимум температуры воздуха на высоте 2 м над землей.
R - Количество осадков - Количество выпавших осадков за период времени, мм. При наведении курсора мыши на число - период времени, за который выпало указанное количество осадков.
R24 - Количество осадков - Количество выпавших осадков за 24 часа, мм.
S - Снежный покров - Высота снежного покрова, см. При наведении курсора мыши на число - состояние снежного покрова и степень покрытия местности в баллах.